This is the latest recevied weather packets stored in our database for station/object NI4CE-11. If no packets are shown the sender has not sent any weather packets the latest 10 day(s).
| Time | Temp. | Humidity | Pressure | Rain* | Wind** | Luminosity | Snow |
|---|---|---|---|---|---|---|---|
| 1777434624 | 23.89° C | 100% | 1018.3 hPa | 0 mm | - | - | - |
| 1777434324 | 25° C | 100% | 1018.5 hPa | 0 mm | - | - | - |
| 1777434024 | 25.56° C | 100% | 1018.5 hPa | 0 mm | - | - | - |
| 1777433724 | 23.33° C | 100% | 1018.6 hPa | 0 mm | - | - | - |
| 1777433424 | 25° C | 100% | 1018.5 hPa | 0 mm | - | - | - |
| 1777433124 | 26.67° C | 100% | 1018.6 hPa | 0 mm | - | - | - |
| 1777432824 | 25.56° C | 100% | 1018.6 hPa | 0 mm | - | - | - |
| 1777432524 | 24.44° C | 100% | 1018.6 hPa | 0 mm | - | - | - |
| 1777432224 | 25° C | 100% | 1018.6 hPa | 0 mm | - | - | - |
| 1777431924 | 26.11° C | 100% | 1018.5 hPa | 0 mm | - | - | - |
| 1777431624 | 25.56° C | 100% | 1018.4 hPa | 0 mm | - | - | - |
| 1777431602 | 23.89° C | 100% | 1018.1 hPa | 0 mm | - | - | - |
| 1777431324 | 24.44° C | 100% | 1018.4 hPa | 0 mm | - | - | - |
| 1777431024 | 23.89° C | 100% | 1018.4 hPa | 0 mm | - | - | - |
| 1777430724 | 24.44° C | 100% | 1018.3 hPa | 0 mm | - | - | - |
| 1777430424 | 24.44° C | 100% | 1018.3 hPa | 0 mm | - | - | - |
| 1777430124 | 23.89° C | 100% | 1018.2 hPa | 0 mm | - | - | - |
| 1777429824 | 23.89° C | 100% | 1018.1 hPa | 0 mm | - | - | - |
| 1777429524 | 23.89° C | 100% | 1018.1 hPa | 0 mm | - | - | - |
| 1777429224 | 23.89° C | 100% | 1018 hPa | 0 mm | - | - | - |
| 1777428925 | 25° C | 100% | 1018 hPa | 0 mm | - | - | - |
| 1777428624 | 25° C | 100% | 1018 hPa | 0 mm | - | - | - |
| 1777428324 | 25.56° C | 100% | 1018 hPa | 0 mm | - | - | - |
| 1777428060 | 24.44° C | 100% | 1018 hPa | 0 mm | - | - | - |
| 1777428024 | 24.44° C | 100% | 1017.9 hPa | 0 mm | - | - | - |
* Rain latest hour (hover to see other rain measurements)
** Current wind speed in m/s (hover to see current wind gust speed)